Weather reports worldwide

Advertisment
Lanveoc Poulmic, France (7109): temperature & dewpoint: 18.06.2018 11:00:00 - 24.06.2018 11:00:00 (CEST)Lanveoc Poulmic, France (7109): wind speed & gusts: 18.06.2018 11:00:00 - 24.06.2018 11:00:00 (CEST)Lanveoc Poulmic, France (7109): wind direction: 18.06.2018 11:00:00 - 24.06.2018 11:00:00 (CEST)Lanveoc Poulmic, France (7109): reduced air pressure: 18.06.2018 11:00:00 - 24.06.2018 11:00:00 (CEST)Lanveoc Poulmic, France (7109): visibility: 18.06.2018 11:00:00 - 24.06.2018 11:00:00 (CEST)Lanveoc Poulmic, France (7109): precipitation: 18.06.2018 11:00:00 - 24.06.2018 11:00:00 (CEST)
Date & Time tt [°C] td [°C] ff [km/h] ff [kn] fx [km/h] fx [kn] dd ppp [hPa] vv [km] rr [mm]
24.06.2018 11:00:00 - - - - - - - - - -
24.06.2018 10:00:00 18,4 10,5 11 6 21 11 ENE 1024,8 10 0,0
24.06.2018 09:00:00 16,1 10,2 15 8 22 12 ENE 1024,5 10 0,0
24.06.2018 08:00:00 14,8 10,0 11 6 16 9 ENE 1024,5 35 -
24.06.2018 07:00:00 12,9 9,5 9 5 15 8 ENE 1024,1 10 0,0
24.06.2018 06:00:00 12,8 9,2 11 6 16 9 ENE 1024,2 10 0,0
24.06.2018 05:00:00 13,1 9,2 11 6 18 10 ENE 1024,4 10 -
24.06.2018 04:00:00 13,2 9,4 9 5 15 8 ENE 1024,5 10 0,0
24.06.2018 03:00:00 13,3 9,5 9 5 15 8 ENE 1024,9 10 0,0
24.06.2018 02:00:00 13,6 9,6 9 5 21 11 ENE 1025,2 45 -
24.06.2018 01:00:00 14,8 9,6 11 6 21 11 ENE 1025,5 10 0,0
24.06.2018 00:00:00 15,3 10,3 13 7 21 11 ENE 1025,6 10 0,0
23.06.2018 23:00:00 16,1 10,6 13 7 24 13 ENE 1025,7 55 -
23.06.2018 22:00:00 17,8 9,9 15 8 34 18 NE 1025,4 10 0,0
23.06.2018 21:00:00 19,0 9,2 13 7 28 15 NE 1025,3 10 0,0
23.06.2018 20:00:00 20,6 8,6 16 9 34 18 NE 1025,2 10 -
23.06.2018 19:00:00 21,7 9,9 16 9 31 17 NNE 1025,2 35 0,0
23.06.2018 18:00:00 23,5 11,2 13 7 24 13 NE 1025,4 10 0,0
23.06.2018 17:00:00 23,6 9,9 9 5 16 9 NNE 1025,8 35 -
23.06.2018 16:00:00 23,5 10,5 9 5 16 9 NNE 1026,4 10 0,0
23.06.2018 15:00:00 22,7 9,1 8 4 18 10 N 1027,2 10 0,0
23.06.2018 14:00:00 22,0 9,2 9 5 18 10 ENE 1027,7 10 -
23.06.2018 13:00:00 21,3 10,5 11 6 18 10 E 1028,3 10 0,0
23.06.2018 12:00:00 19,7 10,4 13 7 18 10 ENE 1028,5 10 0,0
23.06.2018 11:00:00 18,6 10,9 9 5 13 7 E 1028,8 29 -
23.06.2018 10:00:00 18,0 11,1 8 4 16 9 ESE 1028,7 10 0,0
23.06.2018 09:00:00 15,4 10,0 13 7 24 13 E 1029,0 10 0,0
23.06.2018 08:00:00 13,1 9,3 13 7 21 11 ENE 1029,3 10 -
23.06.2018 07:00:00 11,7 9,3 15 8 21 11 ENE 1028,9 10 0,0
23.06.2018 06:00:00 10,7 8,5 13 7 18 10 ENE 1028,8 10 0,0
23.06.2018 05:00:00 10,6 8,0 13 7 18 10 ENE 1028,9 35 -
23.06.2018 04:00:00 11,0 8,2 13 7 21 11 ENE 1028,9 10 0,0
23.06.2018 03:00:00 11,6 9,0 15 8 24 13 NE 1028,9 10 0,0
23.06.2018 02:00:00 11,3 8,9 13 7 21 11 NE 1029,4 40 -
23.06.2018 01:00:00 11,8 9,2 11 6 18 10 NE 1029,5 10 0,0
23.06.2018 00:00:00 11,6 8,8 9 5 21 11 ENE 1029,6 10 0,0
22.06.2018 23:00:00 12,3 7,4 9 5 22 12 NE 1029,5 55 -
22.06.2018 22:00:00 13,5 5,9 11 6 29 16 NE 1029,0 10 0,0
22.06.2018 21:00:00 15,4 5,6 16 9 28 15 NE 1028,9 45 0,0
22.06.2018 20:00:00 17,0 5,6 18 10 26 14 NE 1029,2 10 -
22.06.2018 19:00:00 18,1 6,6 15 8 29 16 NNE 1029,0 10 0,0
22.06.2018 18:00:00 19,1 6,9 18 10 35 19 NNE 1029,4 10 0,0
22.06.2018 17:00:00 19,8 7,5 18 10 34 18 NNE 1029,5 23 -
22.06.2018 16:00:00 19,7 7,7 21 11 35 19 NE 1029,8 10 0,0
22.06.2018 15:00:00 19,9 8,9 16 9 35 19 NE 1029,9 10 0,0
22.06.2018 14:00:00 19,7 10,4 15 8 31 17 NE 1030,2 35 -
22.06.2018 13:00:00 19,5 8,8 16 9 28 15 NE 1030,6 10 0,0
22.06.2018 12:00:00 19,0 9,0 11 6 - - NE - 10 -
22.06.2018 11:00:00 17,0 9,9 9 5 18 10 NE 1031,0 19 -
22.06.2018 10:00:00 15,6 10,4 8 4 16 9 ENE 1031,0 10 0,0
22.06.2018 09:00:00 13,3 10,3 11 6 16 9 ENE 1031,0 10 0,0
22.06.2018 08:00:00 12,6 10,3 8 4 13 7 NE 1030,9 10 -
22.06.2018 07:00:00 10,4 9,5 5 3 9 5 ENE 1030,7 10 0,0
22.06.2018 06:00:00 9,6 8,8 5 3 11 6 - 1030,4 10 0,0
22.06.2018 05:00:00 9,7 8,9 5 3 9 5 ENE 1030,2 10 -
22.06.2018 04:00:00 9,9 9,0 5 3 15 8 E 1030,1 10 0,0
22.06.2018 03:00:00 10,2 8,8 9 5 16 9 NNE 1030,0 10 0,0
22.06.2018 02:00:00 10,7 8,6 9 5 22 12 NNE 1029,9 10 -
22.06.2018 01:00:00 11,2 8,4 13 7 22 12 NNE 1029,9 10 0,0
22.06.2018 00:00:00 11,5 7,0 13 7 28 15 NNE 1029,8 10 0,0
21.06.2018 23:00:00 11,9 7,4 21 11 29 16 NNE 1029,3 10 -
21.06.2018 22:00:00 13,0 6,3 16 9 37 20 NNE 1028,6 10 0,0
21.06.2018 21:00:00 13,9 5,5 21 11 41 22 NNE 1028,3 10 0,0
21.06.2018 20:00:00 15,1 5,6 22 12 41 22 NE 1028,0 10 -
21.06.2018 19:00:00 15,4 5,3 24 13 41 22 NNE 1027,9 10 0,0
21.06.2018 18:00:00 16,7 8,4 22 12 41 22 NNE 1028,2 10 0,0
21.06.2018 17:00:00 16,6 7,2 24 13 41 22 NNE 1027,9 16 -
21.06.2018 16:00:00 17,0 7,9 22 12 41 22 NNE 1027,5 10 0,0
21.06.2018 15:00:00 17,5 8,1 28 15 46 25 NNE 1027,4 10 0,0
21.06.2018 14:00:00 17,1 7,7 29 16 48 26 NNE 1026,9 10 -
21.06.2018 13:00:00 17,7 9,6 22 12 46 25 NE 1026,4 10 0,0
21.06.2018 12:00:00 16,9 8,3 21 11 44 24 NE 1026,2 10 0,0
21.06.2018 11:00:00 16,5 7,4 24 13 42 23 NE 1026,2 10 -
21.06.2018 10:00:00 15,5 7,8 24 13 50 27 NNE 1026,1 10 0,0
21.06.2018 09:00:00 15,0 9,1 24 13 42 23 NNE 1025,9 10 0,0
21.06.2018 08:00:00 13,9 9,3 22 12 39 21 NNE 1025,6 10 -
21.06.2018 07:00:00 12,8 9,4 24 13 39 21 NNE 1025,3 10 0,0
21.06.2018 06:00:00 12,7 9,5 24 13 41 22 NNE 1024,7 10 0,0
21.06.2018 05:00:00 13,2 11,1 21 11 37 20 NNE 1024,1 10 -
21.06.2018 04:00:00 14,6 12,8 21 11 31 17 N 1024,0 10 0,0
21.06.2018 03:00:00 14,5 12,9 16 9 29 16 N 1024,1 10 0,0
21.06.2018 02:00:00 14,4 13,3 18 10 28 15 N 1024,1 10 -
21.06.2018 01:00:00 14,8 14,3 18 10 29 16 N 1024,2 10 0,0
21.06.2018 00:00:00 15,1 14,6 13 7 31 17 N 1024,0 10 0,0
20.06.2018 23:00:00 14,8 14,3 18 10 29 16 N 1024,1 16 -
20.06.2018 22:00:00 15,3 14,2 18 10 35 19 N 1022,9 10 0,0
20.06.2018 21:00:00 19,2 15,3 16 9 22 12 N 1022,1 10 0,0
20.06.2018 20:00:00 20,5 15,7 18 10 26 14 N 1022,0 27 -
20.06.2018 19:00:00 21,3 15,8 16 9 29 16 N 1022,0 10 0,0
20.06.2018 18:00:00 22,9 16,4 21 11 29 16 NNW 1021,7 19 0,0
20.06.2018 17:00:00 24,6 17,8 11 6 21 11 NNW 1021,5 17 -
20.06.2018 16:00:00 23,6 17,8 13 7 18 10 WNW 1021,8 10 0,0
20.06.2018 15:00:00 23,5 17,7 11 6 16 9 NNW 1022,1 10 0,0
20.06.2018 14:00:00 22,6 17,5 8 4 15 8 NNW 1022,6 10 -
20.06.2018 13:00:00 20,4 17,8 8 4 13 7 N 1022,8 10 0,0
20.06.2018 12:00:00 17,8 17,6 5 3 13 7 - 1023,0 6 0,0
20.06.2018 11:00:00 16,2 16,2 8 4 13 7 N 1023,1 0,1 -
20.06.2018 10:00:00 15,8 15,8 8 4 13 7 N 1023,3 0,2 0,0
20.06.2018 09:00:00 15,6 15,6 5 3 9 5 - 1023,1 0,2 0,0
20.06.2018 08:00:00 15,3 15,3 4 2 8 4 N 1023,1 - -
20.06.2018 07:00:00 15,3 15,3 4 2 11 6 ENE 1022,9 - 0,0
20.06.2018 06:00:00 15,2 15,2 5 3 13 7 E 1022,9 0,3 0,0
20.06.2018 05:00:00 15,2 15,2 8 4 11 6 ENE 1023,1 - -
20.06.2018 04:00:00 15,3 15,1 8 4 13 7 ENE 1023,1 0,1 0,0
20.06.2018 03:00:00 15,2 15,0 8 4 16 9 ENE 1023,5 0,5 0,0
20.06.2018 02:00:00 15,4 15,1 9 5 18 10 ENE 1023,9 0,8 -
20.06.2018 01:00:00 15,7 15,2 11 6 21 11 NNE 1024,3 6 0,0
20.06.2018 00:00:00 16,1 15,3 13 7 21 11 NNE 1024,6 10 0,0
19.06.2018 23:00:00 16,3 15,3 9 5 18 10 NNW 1024,6 23 -
19.06.2018 22:00:00 16,4 14,4 11 6 15 8 WNW 1024,1 35 0,0
19.06.2018 21:00:00 18,4 14,9 11 6 18 10 WNW 1024,2 40 0,0
19.06.2018 20:00:00 19,4 15,1 13 7 18 10 WNW 1024,4 35 -
19.06.2018 19:00:00 20,3 15,7 11 6 21 11 NW 1024,8 10 0,0
19.06.2018 18:00:00 20,3 15,3 11 6 15 8 NW 1025,4 35 0,0
19.06.2018 17:00:00 19,2 15,5 9 5 15 8 WNW 1025,9 35 -
19.06.2018 16:00:00 19,1 16,1 11 6 39 21 NW 1026,1 45 0,0
19.06.2018 15:00:00 19,2 16,4 8 4 15 8 W 1026,4 19 0,0
19.06.2018 14:00:00 17,7 15,9 8 4 13 7 S 1026,8 30 -
19.06.2018 13:00:00 18,0 15,3 4 2 9 5 - 1027,0 10 0,0
19.06.2018 12:00:00 17,4 14,5 8 4 16 9 NNW 1026,9 10 0,0
19.06.2018 11:00:00 16,6 15,8 5 3 9 5 NNW 1027,0 45 -
19.06.2018 10:00:00 16,0 15,8 4 2 5 3 - 1027,2 10 0,0
19.06.2018 09:00:00 15,8 15,8 4 2 5 3 - 1027,0 10 0,0
19.06.2018 08:00:00 15,4 15,4 5 3 5 3 S 1027,1 10 -
19.06.2018 07:00:00 15,1 15,1 2 1 5 3 SW 1026,7 10 0,0
19.06.2018 06:00:00 15,0 15,0 0 0 13 7 N 1026,5 16 0,2
19.06.2018 05:00:00 15,1 15,1 9 5 15 8 WNW 1026,4 0,3 -
19.06.2018 04:00:00 15,2 15,2 9 5 13 7 WNW 1026,5 2,8 0,0
19.06.2018 03:00:00 15,0 15,0 8 4 15 8 W 1026,7 0,3 0,2
19.06.2018 02:00:00 14,8 14,6 9 5 15 8 WSW 1027,0 0,3 -
19.06.2018 01:00:00 14,7 14,5 8 4 15 8 W 1027,1 3,9 0,0
19.06.2018 00:00:00 14,8 14,6 9 5 16 9 W 1027,5 4,6 0,2
18.06.2018 23:00:00 15,1 14,9 11 6 15 8 W 1027,3 0,4 -
18.06.2018 22:00:00 15,2 14,9 13 7 18 10 WSW 1026,9 0,9 0,2
18.06.2018 21:00:00 15,5 15,2 15 8 22 12 W 1026,6 1,3 0,0
18.06.2018 20:00:00 15,7 15,2 15 8 24 13 WSW 1026,6 2,0 -
18.06.2018 19:00:00 16,3 15,2 16 9 24 13 WSW 1026,4 2,8 0,0
18.06.2018 18:00:00 17,2 14,7 15 8 24 13 WSW 1026,3 10 0,0
18.06.2018 17:00:00 16,6 14,2 18 10 28 15 WSW 1026,5 19 -
18.06.2018 16:00:00 16,6 14,4 16 9 24 13 SW 1026,3 9 0,0
18.06.2018 15:00:00 17,8 15,1 15 8 21 11 WSW 1025,8 10 0,0
18.06.2018 14:00:00 17,2 14,5 9 5 22 12 WSW 1025,9 40 -
18.06.2018 13:00:00 17,1 14,6 11 6 21 11 WNW 1026,0 10 0,0
18.06.2018 12:00:00 16,1 13,9 13 7 22 12 WNW 1025,7 10 0,0
18.06.2018 11:00:00 16,0 13,3 13 7 24 13 NW 1025,4 29 -

tt = temperature
td = dewpoint
ff = wind speed
fx = gusts
dd = wind direction
ppp = reduced air pressure
vv = visibility
rr = precipitation

Next stations